User: anonymous   Login
Location: Knowlton
(51.2333°N, 1.2667°E)
Time: 22:12:38
(UTC+00:00)
Language:

HuskySat-1 - Orbit

View from above orbital plane
View from above orbital plane
View from above satellite
View from above satellite

Ground track
Ground track

The orbit data is extracted from the following two-line orbital elements,

1 45117U 19071G   21339.35082504  .00008064  00000-0  21655-3 0  9991
2 45117  51.6406 285.2160 0009057 183.9706 176.1208 15.38815759103473
Epoch (UTC): 05 December 2021 08:25:11
Eccentricity: 0.0009057
inclination: 51.6406°
perigee height: 443 km
apogee height: 456 km
right ascension of ascending node: 285.2160°
argument of perigee: 183.9706°
revolutions per day: 15.38815759
mean anomaly at epoch: 176.1208°
orbit number at epoch: 10347

The dashed part of the orbit path shows where the satellite is in the earth's shadow,  

DLR